Location: Bermeries
(50.2863°N, 3.7551°E)
Time: 03:01:14
(UTC+00:00)

Cosmos 2333 Rocket - Pass Details

Date: 23 May 2024
Orbit: 838 x 863 km, 70.8° (Epoch: 21 June)

Event Time Altitude Azimuth Distance (km) Brightness Sun altitude
Rises 02:29:35 0° 328° (NNW) 3,425 5.6 -10.0°
Reaches altitude 10° 02:32:04 10° 324° (NW) 2,489 4.8 -9.7°
Maximum altitude 02:37:40 58° 247° (WSW) 992 2.3 -9.1°
Drops below altitude 10° 02:43:15 10° 170° (S) 2,488 4.3 -8.5°
Sets 02:45:44 0° 166° (SSE) 3,424 5.0 -8.3°
